Location: Unspecified
(0.0000°N, 0.0000°E)
Time: 10:22:38
(UTC+00:00)

GALILEO-FM3 - Visible Passes

Search period start: 22 October 2018 00:00
Search period end: 01 November 2018 00:00
Orbit: 23215 x 23228 km, 54.9° (Epoch: 20 October)

Date Brightness Start Highest point End Pass type
(mag) Time Alt. Az. Time Alt. Az. Time Alt. Az.
22 Oct ? 05:18:40 10° SSW 09:35:50 85° E 13:25:23 10° NNE visible
23 Oct ? 12:03:21 10° SW 20:48:02 72° E 00:13:23 10° SSE visible
24 Oct ? 22:39:08 10° NW 00:53:41 30° W 11:05:48 10° NNE visible
26 Oct ? 09:26:58 10° SW 19:12:41 46° E 21:58:16 10° SSE visible
27 Oct ? 20:18:58 10° NNW 23:18:44 55° W 08:47:49 10° NE visible
29 Oct ? 07:11:40 10° SSW 17:38:10 22° E 19:28:43 10° SE visible
30 Oct ? 18:01:43 10° NNW 21:43:14 81° W 05:21:03 10° ENE daylight
